User: anonymous   Login
Location: Unspecified
(0.0000°N, 0.0000°E)
Time: 17:03:03
(UTC+00:00)
Language:

Diapason D-1A - Orbit

View from above orbital plane
View from above orbital plane
View from above satellite
View from above satellite

Ground track
Ground track

The orbit data is extracted from the following two-line orbital elements,

1 02016U 66013A   18174.94589256  .00000049  00000-0  21523-4 0  9994
2 02016  34.0914   7.2364 1186865  36.4029 331.1704 12.59651516371745
Epoch (UTC): 23 June 2018 22:42:05
Eccentricity: 0.1186865
inclination: 34.0914°
perigee height: 498 km
apogee height: 2350 km
right ascension of ascending node: 7.2364°
argument of perigee: 36.4029°
revolutions per day: 12.59651516
mean anomaly at epoch: 331.1704°
orbit number at epoch: 37174

The dashed part of the orbit path shows where the satellite is in the earth's shadow,  

DLR